Thunderstorms From: 22-05-2018 15:00 Until: 23-05-2018 15:00 warning for: Thunderstorms Level: Yellow info button

Although rather usual in this region, locally or potentially dangerous phenomena are expected. (such as local winds, summer thunderstorms, rising streams or high waves) Be aware and pay attention to the latest weather updates, especially if you carry out activities exposed to weather or close to a stream or shoreline. 


Meteo18 Weather Cam more information Meteo18 Weather Cam


warning for Thunderstorms more information blitzortung!


Rain radar more information rain snow radar


Visit our other weather sites:

Template documentation
and downloads

And another site



Weather Underground History page Text

Daily Summary for October 16, 2017 Units:  Metric    English   Both
« Previous Day
Next Day »
Daily Weekly Monthly Yearly Custom
  High: Low: Average:
Temperature: -17.8 °C -9.6 °C -7.9 °C
Dew Point: -17.8 °C -10.4 °C -9.9 °C
Humidity: Humidity % 55 % 78 %
Wind Speed: 0 km/h -2589 km/h -41.7 km/h
Wind Gust: 0 km/h - -
Wind:- -
Pressure: 0 hPa 34611.7 hPa -
Precipitation: 0 mm    
Historical Graphs
 
 
Tabular Data for October 16, 2017
Time Temperature Dew Point Pressure Wind Wind Speed Wind Gust Humidity Rainfall Rate (Hourly)
-17.8 °C -17.8 °C 0 hPa Calm     Humidity % 0 mm
18:12 -4.2 °C -9.5 °C 34611.7 hPa North -2589 km/h -2586.8 km/h 55 % 0 mm
18:32 -4.5 °C -9.5 °C 34611.7 hPa Calm   -2586.8 km/h 57 % 0 mm
18:37 -4.7 °C -9.4 °C 34625.2 hPa Calm   5.1 km/h 59 % 0 mm
18:42 -4.9 °C -9.3 °C 34625.2 hPa Calm   5.1 km/h 61 % 0 mm
18:47 -5.1 °C -9.4 °C 34625.2 hPa Calm   5.1 km/h 62 % 0 mm
18:52 -5.3 °C -9.4 °C 34625.2 hPa South 2.6 km/h 2.6 km/h 63 % 0 mm
18:57 -5.4 °C -9.4 °C 34635.4 hPa Calm   2.6 km/h 64 % 0 mm
19:02 -5.7 °C -9.3 °C 34635.4 hPa Calm   2.6 km/h 66 % 0 mm
19:07 -5.7 °C -9.3 °C 34635.4 hPa Calm   2.6 km/h 67 % 0 mm
19:17 -5.9 °C -9.3 °C 34635.4 hPa Calm   2.6 km/h 68 % 0 mm
19:22 -6 °C -9.4 °C 34635.4 hPa Calm   2.6 km/h 68 % 0 mm
19:32 -6.1 °C -9.4 °C 34635.4 hPa Calm   2.6 km/h 69 % 0 mm
19:37 -6.2 °C -9.4 °C 34645.6 hPa Calm   2.6 km/h 69 % 0 mm
19:42 -6.3 °C -9.5 °C 34645.6 hPa Calm   2.6 km/h 70 % 0 mm
19:47 -6.6 °C -9.5 °C 34645.6 hPa Calm   2.6 km/h 72 % 0 mm
19:52 -6.8 °C -9.6 °C 34645.6 hPa Calm     73 % 0 mm
19:57 -6.9 °C -9.5 °C 34645.6 hPa Calm   5.1 km/h 75 % 0 mm
20:02 -6.8 °C -9.5 °C 34645.6 hPa Calm   5.1 km/h 74 % 0 mm
20:07 -6.8 °C -9.5 °C 34645.6 hPa Calm   5.1 km/h 74 % 0 mm
20:12 -6.9 °C -9.4 °C 34645.6 hPa Calm   2.6 km/h 75 % 0 mm
20:17 -7.1 °C -9.5 °C 34645.6 hPa Calm   2.6 km/h 76 % 0 mm
20:22 -7.3 °C -9.6 °C 34645.6 hPa Calm   2.6 km/h 77 % 0 mm
20:27 -7.3 °C -9.5 °C 34645.6 hPa Calm   2.6 km/h 78 % 0 mm
20:32 -7.4 °C -9.5 °C 34645.6 hPa Calm     79 % 0 mm
20:42 -7.6 °C -9.6 °C 34659.1 hPa Calm     80 % 0 mm
20:47 -7.7 °C -9.6 °C 34659.1 hPa Calm     81 % 0 mm
20:52 -7.9 °C -9.7 °C 34659.1 hPa Calm     81 % 0 mm
20:57 -8 °C -9.7 °C 34659.1 hPa Calm     82 % 0 mm
21:02 -8.1 °C -9.7 °C 34659.1 hPa Calm     83 % 0 mm
21:12 -8.1 °C -9.8 °C 34659.1 hPa Calm     82 % 0 mm
21:17 -8.1 °C -9.7 °C 34659.1 hPa Calm     83 % 0 mm
21:22 -8.2 °C -9.7 °C 34659.1 hPa Calm     84 % 0 mm
21:27 -8.3 °C -9.8 °C 34659.1 hPa Calm     84 % 0 mm
21:32 -8.3 °C -9.7 °C 34659.1 hPa Calm     85 % 0 mm
21:37 -8.3 °C -9.7 °C 34659.1 hPa Calm     85 % 0 mm
21:42 -8.3 °C -9.7 °C 34669.3 hPa Calm     85 % 0 mm
21:47 -8.4 °C -9.8 °C 34659.1 hPa Calm     85 % 0 mm
21:52 -8.4 °C -9.8 °C 34669.3 hPa Calm     85 % 0 mm
21:57 -8.4 °C -9.8 °C 34669.3 hPa Calm     86 % 0 mm
22:02 -8.5 °C -9.8 °C 34669.3 hPa Calm     86 % 0 mm
22:12 -8.6 °C -9.9 °C 34669.3 hPa Calm     86 % 0 mm
22:17 -8.7 °C -9.9 °C 34669.3 hPa Calm     87 % 0 mm
22:22 -8.8 °C -10.1 °C 34669.3 hPa Calm     87 % 0 mm
22:32 -8.8 °C -9.9 °C 34669.3 hPa Calm     88 % 0 mm
22:37 -8.9 °C -10.1 °C 34682.8 hPa Calm     88 % 0 mm
22:42 -9 °C -10.1 °C 34682.8 hPa Calm     88 % 0 mm
22:47 -9.1 °C -10.1 °C 34682.8 hPa Calm     89 % 0 mm
22:52 -9.1 °C -10.1 °C 34682.8 hPa Calm     89 % 0 mm
22:57 -9.2 °C -10.2 °C 34682.8 hPa Calm     89 % 0 mm
23:02 -9.3 °C -10.2 °C 34682.8 hPa Calm     90 % 0 mm
23:07 -9.3 °C -10.2 °C 34682.8 hPa Calm     90 % 0 mm
23:12 -9.3 °C -10.2 °C 34682.8 hPa Calm     90 % 0 mm
23:17 -9.3 °C -10.2 °C 34682.8 hPa Calm     90 % 0 mm
23:22 -9.3 °C -10.3 °C 34682.8 hPa Calm     89 % 0 mm
23:27 -9.3 °C -10.2 °C 34682.8 hPa Calm     90 % 0 mm
23:32 -9.3 °C -10.2 °C 34682.8 hPa Calm     91 % 0 mm
23:37 -9.4 °C -10.3 °C 34682.8 hPa Calm     90 % 0 mm
23:42 -9.5 °C -10.4 °C 34682.8 hPa Calm     90 % 0 mm
23:47 -9.5 °C -10.3 °C 34693 hPa Calm     91 % 0 mm
23:52 -9.6 °C -10.4 °C 34682.8 hPa Calm     91 % 0 mm
23:57 -9.6 °C -10.4 °C 34682.8 hPa Calm     91 % 0 mm
Meteo18
Compliments of Weather Underground - 4 mb

Script developed by  Jim McMurry - jmcmurry@mwt.net Adapted for the template by  Wim van der Kuil - Leuven-Template.eu

You find our weather info also at:

European Weather Network

Weather Underground

Equipment we use:

Weather-station
Davis Vue

Weather-program
Meteobridge

Weather-server
Raspberry PI 2 B+

Provider
1 and 1

Davis Vue

Meteobridge

Raspberry PI 2 B+

1 and 1